Weather History for Iliamna, AK

Change the Weather History Date:

Saturday, August 3, 2013

  Actual Average Record
Temperature  
Mean Temperature 56 °F -  
Max Temperature 59 °F 64 °F 79 °F (1979)
Min Temperature 53 °F 49 °F 40 °F (1946)
Degree Days  
Heating Degree Days 9    
Growing Degree Days 6 (Base 50)    
Moisture  
Dew Point 53 °F    
Average Humidity 90    
Maximum Humidity 100    
Minimum Humidity 71    
Precipitation  
Precipitation 0.55 in - - ()
Sea Level Pressure  
Sea Level Pressure 29.68 in    
Wind  
Wind Speed 15 mph (East)    
Max Wind Speed 25 mph    
Max Gust Speed 37 mph    
Visibility 7 miles    
Events Rain    
Averages and records for this station are not official NWS values.
T = Trace of Precipitation, MM = Missing Value Source: NWS Daily Summary

Daily Weather History Graph

Daily Weather History Graph

Search for Another Location

Airport:

Trip Planner

Search our weather history database for the weather conditions in past years. The results will help you decide how hot, cold, wet, or windy it might be!

Date:

Astronomy

Aug. 03, 2013 Rise Set
Actual Time 6:07 AM AKDT 10:41 PM AKDT
Civil Twilight 5:10 AM AKDT 11:38 PM AKDT
Nautical Twilight 3:22 AM AKDT 1:21 AM AKDT
Astronomical Twilight Sun does not rise Sun does not rise
Moon 3:15 AM AKDT (8/3) 8:37 PM AKDT (8/3)
Length of Visible Light 18h 28m
Length of Day
16h 34m
Waning Crescent, 9% of the Moon is Illuminated
Aug 3
Waning Crescent
Aug 6
New
Aug 14
First Quarter
Aug 20
Full
Aug 28
Last Quarter

Hourly Weather History & Observations

Time (AKDT) Temp. Dew Point Humidity Pressure Visibility Wind Dir Wind Speed Gust Speed Precip Events Conditions
12:53 AM 59.0 °F 53.1 °F 81% 29.59 in 10.0 mi East 12.7 mph - N/A   Overcast
1:53 AM 59.0 °F 53.1 °F 81% 29.56 in 10.0 mi East 18.4 mph 25.3 mph 0.01 in   Overcast
2:53 AM 59.0 °F 52.0 °F 78% 29.55 in 10.0 mi ENE 17.3 mph 24.2 mph N/A   Overcast
3:53 AM 59.0 °F 52.0 °F 78% 29.54 in 10.0 mi East 18.4 mph 28.8 mph N/A   Overcast
4:53 AM 57.0 °F 51.1 °F 81% 29.55 in 10.0 mi East 23.0 mph 33.4 mph N/A   Mostly Cloudy
5:53 AM 57.0 °F 50.0 °F 77% 29.55 in 10.0 mi East 19.6 mph 33.4 mph N/A   Overcast
6:53 AM 57.0 °F 48.9 °F 74% 29.56 in 10.0 mi East 21.9 mph 32.2 mph N/A   Overcast
7:53 AM 55.0 °F 50.0 °F 83% 29.56 in 10.0 mi East 25.3 mph 36.8 mph N/A   Overcast
8:53 AM 55.9 °F 50.0 °F 80% 29.57 in 10.0 mi East 18.4 mph 28.8 mph N/A   Overcast
9:53 AM 55.9 °F 51.1 °F 84% 29.58 in 10.0 mi East 18.4 mph 29.9 mph N/A   Overcast
10:53 AM 54.0 °F 52.0 °F 93% 29.60 in 3.0 mi ESE 17.3 mph 28.8 mph 0.07 in Rain Heavy Rain
11:03 AM 53.6 °F 51.8 °F 94% 29.60 in 2.5 mi East 18.4 mph 25.3 mph 0.04 in Rain Heavy Rain
11:19 AM 53.6 °F 51.8 °F 94% 29.60 in 3.0 mi East 16.1 mph 31.1 mph 0.09 in Rain Heavy Rain
11:53 AM 54.0 °F 53.1 °F 97% 29.61 in 3.0 mi East 20.7 mph 26.5 mph 0.18 in Rain Heavy Rain
12:53 PM 55.0 °F 53.1 °F 93% 29.63 in 8.0 mi East 12.7 mph 23.0 mph 0.09 in Rain Light Rain
1:53 PM 55.9 °F 54.0 °F 93% 29.66 in 8.0 mi East 13.8 mph - 0.02 in Rain Light Rain
2:53 PM 55.9 °F 53.1 °F 90% 29.69 in 5.0 mi ESE 12.7 mph - 0.06 in Rain Light Rain
3:53 PM 55.0 °F 54.0 °F 96% 29.73 in 3.0 mi SE 6.9 mph - 0.11 in Rain Heavy Rain
4:53 PM 55.0 °F 54.0 °F 96% 29.74 in 6.0 mi ESE 13.8 mph - 0.11 in Rain Light Rain
5:53 PM 55.9 °F 54.0 °F 93% 29.76 in 4.0 mi East 9.2 mph - 0.03 in Rain Light Rain
6:32 PM 55.4 °F 53.6 °F 94% 29.77 in 2.0 mi ESE 4.6 mph - 0.11 in Rain Rain
6:53 PM 55.9 °F 54.0 °F 93% 29.78 in 3.0 mi SSE 6.9 mph - 0.17 in Rain Light Rain
7:53 PM 55.0 °F 54.0 °F 96% 29.79 in 5.0 mi East 12.7 mph - 0.08 in Rain Light Rain
8:53 PM 54.0 °F 54.0 °F 100% 29.81 in 3.0 mi ESE 5.8 mph - 0.07 in Rain Rain
9:53 PM 54.0 °F 53.1 °F 97% 29.83 in 3.0 mi East 10.4 mph - 0.09 in Rain Rain
10:49 PM 53.6 °F 53.6 °F 100% 29.84 in 6.0 mi East 12.7 mph - 0.06 in Rain Light Rain
10:53 PM 54.0 °F 53.1 °F 97% 29.85 in 6.0 mi East 10.4 mph - 0.06 in Rain Light Rain
11:17 PM 53.6 °F 53.6 °F 100% 29.84 in 7.0 mi East 9.2 mph - 0.02 in Rain Light Rain
11:26 PM 53.6 °F 53.6 °F 100% 29.85 in 7.0 mi East 8.1 mph - 0.02 in Rain Light Rain
11:53 PM 54.0 °F 53.1 °F 97% 29.86 in 10.0 mi East 9.2 mph - 0.03 in Rain Light Rain